Sheringham Point, British Columbia

1:58 AM PDT on July 21, 2017 (GMT -0700)
Sheringham Point

Weather History for CWSP - October, 2013

Change the Weather History Date:

Saturday, October 26, 2013

  Actual Average Record
Temperature  
Mean Temperature 50 °F -  
Max Temperature 55 °F - - ()
Min Temperature 46 °F - - ()
Degree Days  
Heating Degree Days 14    
Moisture  
Dew Point 46 °F    
Average Humidity 88    
Maximum Humidity 95    
Minimum Humidity 76    
Precipitation  
Precipitation 0.04 in - - ()
Sea Level Pressure  
Sea Level Pressure 30.29 in    
Wind  
Wind Speed 3 mph ()    
Max Wind Speed 12 mph    
Max Gust Speed -    
T = Trace of Precipitation, MM = Missing Value Source: Averaged Metar Reports

Daily Weather History Graph

Daily Weather History Graph

Search for Another Location

Airport or City:

Trip Planner

Search our weather history database for the weather conditions in past years. The results will help you decide how hot, cold, wet, or windy it might be!

Date:

Astronomy

Oct. 26, 2013 Rise Set
Actual Time 7:52 AM PDT 6:05 PM PDT
Civil Twilight 7:20 AM PDT 6:37 PM PDT
Nautical Twilight 6:43 AM PDT 7:14 PM PDT
Astronomical Twilight 6:07 AM PDT 7:50 PM PDT
Moon No Moon Rise 2:15 PM PDT (10/26)
Length of Visible Light 11h 17m
Length of Day
10h 12m
Waning Gibbous, 52% of the Moon is Illuminated
Oct 26
Waning Gibbous
Oct 26
Last Quarter
Nov 3
New
Nov 9
First Quarter
Nov 17
Full

Hourly Weather History & Observations

Time (PDT) Temp. Windchill Dew Point Humidity Pressure Visibility Wind Dir Wind Speed Gust Speed Precip Events Conditions
12:00 AM 48.7 °F - 46.2 °F 91% 30.32 in - West 1.2 mph - N/A   Unknown
1:00 AM 48.6 °F - 46.9 °F 94% 30.33 in - WNW 4.6 mph - N/A   Unknown
2:00 AM 49.1 °F - 46.8 °F 92% 30.34 in - Calm Calm - N/A   Unknown
3:00 AM 48.9 °F - 47.1 °F 93% 30.32 in - ENE 2.3 mph - 0.05 in   Unknown
4:00 AM 48.7 °F - 47.3 °F 95% 30.31 in - East 5.8 mph - N/A   Unknown
5:00 AM 49 °F - 47 °F 92% 30.31 in - ENE 5.8 mph - -  
5:00 AM 49.5 °F - 47.5 °F 93% 30.31 in - ENE 5.8 mph - N/A   Unknown
6:00 AM 48.4 °F - 46.8 °F 94% 30.32 in - NNE 2.3 mph - N/A   Unknown
7:00 AM 47.8 °F - 46.0 °F 93% 30.32 in - NE 1.2 mph - N/A   Unknown
8:00 AM 46.4 °F 45.2 °F 44.8 °F 94% 30.33 in - East 3.5 mph - N/A   Unknown
9:00 AM 50.9 °F - 48.0 °F 90% 30.34 in - WNW 1.2 mph - N/A   Unknown
10:00 AM 50.0 °F - 45.9 °F 86% 30.34 in - East 5.8 mph - N/A   Unknown
11:00 AM 51 °F - 46 °F 77% 30.34 in - East 3.5 mph - -  
11:00 AM 50.7 °F - 45.9 °F 83% 30.34 in - East 3.5 mph - N/A   Unknown
12:00 PM 49.3 °F - 46.0 °F 89% 30.35 in - West 6.9 mph - N/A   Unknown
1:00 PM 50.0 °F - 46.6 °F 88% 30.33 in - WNW 8.1 mph - N/A   Unknown
2:00 PM 53.8 °F - 47.1 °F 78% 30.31 in - WSW 1.2 mph - N/A   Unknown
3:00 PM 53.2 °F - 45.7 °F 76% 30.29 in - SE 1.2 mph - N/A   Unknown
4:00 PM 51.4 °F - 46.0 °F 82% 30.29 in - WNW 5.8 mph - N/A   Unknown
5:00 PM 51 °F - 46 °F 77% 30.27 in - WNW 5.8 mph - -  
5:00 PM 51.1 °F - 45.9 °F 82% 30.27 in - WNW 5.8 mph - N/A   Unknown
6:00 PM 50.9 °F - 46.4 °F 85% 30.24 in - NW 2.3 mph - N/A   Unknown
7:00 PM 49.6 °F - 45.5 °F 86% 30.23 in - WNW 2.3 mph - N/A   Unknown
8:00 PM 48.4 °F - 46.4 °F 93% 30.23 in - WNW 8.1 mph - N/A   Unknown
9:00 PM 49.3 °F - 46.8 °F 91% 30.21 in - West 11.5 mph - N/A   Unknown
10:00 PM 48.7 °F - 46.8 °F 93% 30.21 in - WNW 5.8 mph - N/A   Unknown
11:00 PM 49 °F - 47 °F 91% 30.20 in - West 1.2 mph - -  
11:00 PM 48.9 °F - 47.1 °F 93% 30.20 in - West 1.2 mph - N/A   Unknown